Weather in Kagel Canyon

United States     34°20′00″N   118°23′06″W
В апреле 2022 года жителям России запретили посещать сайт meteo.paraplan.net по решению Генеральной прокуратуры. Аудитория сайта уменьшилась в 10 раз. Владельцы сайта не видят смысла в поддержке погодного сервера в таких условиях. Сайт будет закрыт в октябре.
temp.,
°C
wind,
m/s
gust,
m/s
humid.,
%
clouds,
%
prec.,
mm/h
press.,
hPa
HPBL,
m
4 october, tue
tue423:00+23sse11480 0.0 1014120
02:00+22se11580 0.0 101376
05:00+21ene00560 0.0 101331
08:00+23wnw01420 0.0 101454
11:00+28ssw21250 0.0 1013417
14:00+33ssw33180 0.0 1011973
17:00+31sw23250 0.0 1010781
20:00+27ssw11360 0.0 1012217
5 october, wed
wed523:00+24sse22540 0.0 1013207
02:00+22sse11590 0.0 1013149
05:00+22se00590 0.0 101362
08:00+23n01460 0.0 101470
11:00+29ssw21270 0.0 1014501
14:00+33sw33190 0.0 10121178
17:00+32wsw33210 0.0 1011829
20:00+27wsw11330 0.0 1013214
6 october, thu
thu623:00+24sse22520 0.0 1014246
02:00+23sse11580 0.0 1015163
05:00+23ne00560 0.0 101444
08:00+24nnw11420 0.0 101561
11:00+29ssw21230 0.0 1015487
14:00+34ssw33170 0.0 10131070
17:00+32sw23200 0.0 1013754
20:00+27wsw11300 0.0 1014205
7 october, fri
fri723:00+24sse22490 0.0 1016226
02:00+23sse10500 0.0 1015102
05:00+23nw11420 0.0 101518
08:00+25nnw22240 0.0 101549
11:00+32sw11140 0.0 1015516
14:00+34s33160 0.0 10131135
17:00+32ssw33190 0.0 1012716
20:00+28sse11300 0.0 1014208
8 october, sat
sat823:00+25se23430 0.0 1015211
02:00+24se11450 0.0 1015116
05:00+23se12480 0.0 101596
08:00+24nne01400 0.0 101564
11:00+29s21280 0.0 1015504
14:00+32s33224 0.0 1013972
17:00+30s33275 0.0 1013954
20:00+26sse22415 0.0 1014395